QPF
0.01 0.00 0.00 0.00 0.00 0.00 0.00 0.00 0.00 0.00 0.00 0.00 0.00 0.00 0.00 0.00 0.00 0.00 0.00 0.00 0.00 0.00 0.00 0.00 0.00 0.00 0.00 0.01 0.01 0.02 0.01 0.01 0.00 0.00 0.00 0.00 0.00 0.00 0.00 0.00 0.00 0.00 0.00
0.03 0.01 0.00 0.00 0.00 0.00 0.00 0.00 0.00 0.00 0.00 0.00 0.00 0.00 0.00 0.00 0.00 0.00 0.00 0.00 0.00 0.00 0.00 0.00 0.00 0.00 0.00 0.01 0.01 0.02 0.01 0.01 0.01 0.01 0.01 0.00 0.00 0.01 0.00 0.00 0.00 0.00 0.00
0.04 0.02 0.01 0.01 0.01 0.01 0.01 0.00 0.00 0.00 0.00 0.00 0.00 0.00 0.00 0.00 0.00 0.00 0.00 0.00 0.00 0.00 0.00 0.00 0.00 0.00 0.01 0.01 0.01 0.01 0.01 0.01 0.01 0.01 0.01 0.01 0.01 0.01 0.01 0.01 0.01 0.01 0.01
0.04 0.02 0.01 0.01 0.01 0.01 0.01 0.01 0.01 0.00 0.00 0.00 0.00 0.00 0.00 0.00 0.00 0.00 0.00 0.00 0.00 0.00 0.00 0.00 0.00 0.00 0.00 0.00 0.01 0.01 0.01 0.01 0.01 0.01 0.01 0.00 0.01 0.00 0.01 0.01 0.01 0.01 0.01
0.04 0.03 0.01 0.01 0.01 0.02 0.02 0.02 0.01 0.01 0.00 0.00 0.00 0.00 0.00 0.00 0.00 0.00 0.00 0.00 0.00 0.00 0.00 0.00 0.00 0.00 0.00 0.00 0.01 0.01 0.01 0.01 0.01 0.00 0.00 0.01 0.00 0.00 0.00 0.01 0.01 0.01 0.01
0.05 0.03 0.02 0.01 0.01 0.01 0.01 0.01 0.01 0.01 0.01 0.01 0.01 0.01 0.01 0.01 0.00 0.00 0.00 0.00 0.00 0.00 0.00 0.00 0.00 0.00 0.00 0.00 0.00 0.01 0.01 0.01 0.01 0.01 0.00 0.01 0.01 0.01 0.01 0.01 0.01 0.02 0.02
0.09 0.06 0.03 0.02 0.01 0.01 0.01 0.01 0.02 0.02 0.02 0.02 0.02 0.01 0.01 0.01 0.00 0.00 0.00 0.01 0.01 0.00 0.00 0.00 0.00 0.00 0.00 0.00 0.00 0.01 0.01 0.01 0.01 0.01 0.01 0.01 0.01 0.01 0.01 0.01 0.01 0.02 0.03
0.13 0.12 0.09 0.05 0.03 0.02 0.02 0.02 0.02 0.02 0.02 0.02 0.02 0.02 0.01 0.01 0.01 0.01 0.01 0.01 0.01 0.00 0.01 0.01 0.01 0.00 0.00 0.00 0.00 0.00 0.01 0.01 0.02 0.01 0.01 0.01 0.01 0.01 0.01 0.01 0.01 0.02 0.03
0.16 0.14 0.12 0.11 0.09 0.06 0.05 0.04 0.04 0.03 0.03 0.03 0.03 0.03 0.02 0.01 0.01 0.01 0.01 0.01 0.01 0.01 0.01 0.00 0.00 0.00 0.00 0.00 0.00 0.00 0.00 0.01 0.01 0.02 0.02 0.01 0.01 0.01 0.01 0.01 0.01 0.01 0.02
0.19 0.16 0.13 0.12 0.10 0.10 0.09 0.08 0.07 0.07 0.07 0.07 0.07 0.06 0.04 0.03 0.02 0.02 0.01 0.01 0.01 0.01 0.01 0.00 0.00 0.00 0.00 0.00 0.00 0.00 0.00 0.00 0.01 0.02 0.03 0.02 0.02 0.01 0.02 0.01 0.01 0.01 0.02
0.21 0.16 0.13 0.12 0.12 0.11 0.11 0.10 0.10 0.10 0.09 0.08 0.08 0.09 0.08 0.07 0.05 0.03 0.02 0.01 0.01 0.01 0.01 0.00 0.00 0.00 0.00 0.00 0.00 0.00 0.00 0.00 0.01 0.01 0.02 0.02 0.02 0.02 0.02 0.01 0.01 0.01 0.01
0.23 0.19 0.15 0.13 0.12 0.11 0.10 0.11 0.11 0.11 0.11 0.10 0.10 0.09 0.09 0.08 0.06 0.05 0.03 0.02 0.01 0.01 0.00 0.00 0.00 0.00 0.00 0.00 0.00 0.00 0.00 0.00 0.01 0.01 0.02 0.03 0.03 0.02 0.01 0.01 0.01 0.01 0.01
0.18 0.18 0.17 0.15 0.13 0.13 0.13 0.13 0.12 0.12 0.12 0.13 0.11 0.11 0.10 0.08 0.06 0.06 0.05 0.04 0.02 0.01 0.01 0.00 0.00 0.00 0.00 0.00 0.00 0.00 0.00 0.00 0.00 0.01 0.02 0.02 0.02 0.01 0.01 0.01 0.01 0.01 0.01
0.17 0.15 0.14 0.13 0.13 0.12 0.12 0.12 0.13 0.13 0.13 0.13 0.12 0.11 0.11 0.09 0.07 0.06 0.05 0.04 0.03 0.02 0.02 0.01 0.01 0.00 0.00 0.00 0.00 0.00 0.00 0.00 0.00 0.01 0.01 0.01 0.01 0.00 0.00 0.00 0.00 0.01 0.01
0.15 0.13 0.12 0.10 0.10 0.10 0.11 0.12 0.12 0.11 0.11 0.11 0.11 0.11 0.11 0.10 0.09 0.07 0.05 0.04 0.03 0.03 0.02 0.01 0.01 0.00 0.00 0.00 0.00 0.00 0.00 0.00 0.00 0.00 0.00 0.00 0.00 0.00 0.00 0.00 0.00 0.00 0.00
0.10 0.09 0.08 0.08 0.08 0.08 0.10 0.12 0.13 0.13 0.13 0.13 0.12 0.12 0.12 0.10 0.09 0.08 0.06 0.05 0.03 0.02 0.02 0.01 0.01 0.00 0.00 0.00 0.00 0.00 0.00 0.00 0.00 0.00 0.00 0.00 0.00 0.00 0.00 0.00 0.00 0.00 0.00
0.10 0.09 0.08 0.08 0.09 0.10 0.11 0.11 0.12 0.13 0.13 0.13 0.14 0.14 0.13 0.12 0.11 0.09 0.06 0.05 0.03 0.02 0.02 0.01 0.01 0.01 0.00 0.00 0.00 0.00 0.00 0.00 0.00 0.00 0.00 0.00 0.00 0.00 0.00 0.00 0.00 0.01 0.01
0.15 0.12 0.10 0.09 0.09 0.09 0.11 0.13 0.14 0.13 0.13 0.14 0.13 0.13 0.12 0.11 0.09 0.08 0.06 0.04 0.03 0.02 0.02 0.01 0.01 0.01 0.00 0.00 0.00 0.00 0.00 0.00 0.00 0.01 0.01 0.00 0.00 0.00 0.00 0.01 0.01 0.01 0.01
0.13 0.13 0.11 0.09 0.09 0.08 0.09 0.10 0.12 0.13 0.13 0.12 0.13 0.13 0.12 0.10 0.08 0.07 0.05 0.04 0.02 0.02 0.01 0.01 0.01 0.00 0.00 0.00 0.00 0.00 0.00 0.00 0.00 0.01 0.01 0.01 0.01 0.00 0.00 0.01 0.01 0.01 0.01
0.06 0.07 0.07 0.07 0.07 0.08 0.08 0.07 0.07 0.09 0.09 0.09 0.09 0.09 0.09 0.08 0.07 0.06 0.04 0.03 0.02 0.01 0.01 0.01 0.00 0.00 0.00 0.00 0.00 0.00 0.00 0.00 0.00 0.00 0.01 0.01 0.01 0.01 0.00 0.00 0.00 0.01 0.02
0.02 0.04 0.05 0.06 0.06 0.07 0.08 0.08 0.08 0.08 0.07 0.07 0.07 0.07 0.06 0.05 0.05 0.04 0.03 0.02 0.02 0.01 0.01 0.01 0.01 0.01 0.00 0.00 0.00 0.00 0.00 0.00 0.00 0.00 0.00 0.00 0.00 0.00 0.00 0.00 0.00 0.01 0.01
0.01 0.02 0.02 0.04 0.05 0.05 0.06 0.07 0.06 0.06 0.06 0.05 0.05 0.05 0.05 0.04 0.03 0.03 0.03 0.02 0.01 0.01 0.01 0.01 0.00 0.00 0.00 0.00 0.00 0.00 0.00 0.00 0.00 0.00 0.00 0.00 0.00 0.00 0.00 0.00 0.00 0.01 0.01
0.00 0.01 0.02 0.03 0.03 0.04 0.05 0.04 0.04 0.04 0.04 0.04 0.03 0.03 0.04 0.04 0.03 0.02 0.02 0.01 0.01 0.01 0.01 0.00 0.00 0.00 0.00 0.00 0.00 0.00 0.00 0.00 0.00 0.00 0.00 0.00 0.00 0.00 0.00 0.00 0.01 0.01 0.01
0.00 0.00 0.01 0.01 0.02 0.03 0.04 0.04 0.04 0.03 0.03 0.03 0.02 0.02 0.02 0.02 0.02 0.01 0.01 0.01 0.01 0.00 0.00 0.00 0.00 0.00 0.00 0.00 0.00 0.00 0.00 0.00 0.00 0.00 0.00 0.00 0.00 0.00 0.00 0.00 0.00 0.00 0.01
0.00 0.00 0.00 0.00 0.01 0.01 0.02 0.02 0.03 0.03 0.03 0.03 0.02 0.02 0.01 0.01 0.01 0.01 0.01 0.01 0.00 0.00 0.00 0.00 0.00 0.00 0.00 0.00 0.00 0.00 0.00 0.00 0.00 0.00 0.00 0.00 0.00 0.00 0.00 0.00 0.00 0.00 0.00
0.00 0.00 0.00 0.00 0.01 0.01 0.02 0.03 0.03 0.02 0.03 0.03 0.03 0.02 0.02 0.01 0.01 0.02 0.01 0.01 0.01 0.00 0.00 0.00 0.00 0.00 0.00 0.00 0.00 0.00 0.00 0.00 0.00 0.00 0.00 0.00 0.00 0.00 0.00 0.00 0.00 0.00 0.00
MSLP
1014.02 1014.41 1014.78 1015.11 1015.41 1015.68 1015.93 1016.16 1016.37 1016.55 1016.69 1016.80 1016.87 1016.93 1016.98 1017.03 1017.10 1017.20 1017.31 1017.45 1017.59 1017.73 1017.85 1017.96 1018.06 1018.15 1018.23 1018.32 1018.42 1018.53 1018.64 1018.76 1018.88 1018.97 1019.05 1019.10 1019.13 1019.13 1019.11 1019.06 1018.99 1018.91 1018.81
1013.78 1014.13 1014.47 1014.79 1015.10 1015.40 1015.68 1015.94 1016.18 1016.38 1016.54 1016.65 1016.72 1016.76 1016.77 1016.79 1016.82 1016.88 1016.96 1017.07 1017.19 1017.32 1017.45 1017.57 1017.69 1017.80 1017.92 1018.04 1018.18 1018.33 1018.48 1018.64 1018.78 1018.90 1019.00 1019.06 1019.09 1019.10 1019.08 1019.03 1018.98 1018.91 1018.84
1013.47 1013.78 1014.09 1014.41 1014.73 1015.05 1015.36 1015.66 1015.93 1016.16 1016.35 1016.48 1016.55 1016.59 1016.59 1016.59 1016.59 1016.61 1016.66 1016.74 1016.83 1016.94 1017.06 1017.19 1017.32 1017.46 1017.61 1017.78 1017.96 1018.15 1018.35 1018.54 1018.71 1018.85 1018.96 1019.04 1019.07 1019.07 1019.04 1019.00 1018.95 1018.91 1018.87
1013.11 1013.39 1013.69 1014.00 1014.33 1014.66 1015.00 1015.32 1015.63 1015.89 1016.10 1016.26 1016.36 1016.41 1016.43 1016.42 1016.42 1016.42 1016.44 1016.49 1016.56 1016.64 1016.75 1016.88 1017.02 1017.18 1017.36 1017.57 1017.79 1018.03 1018.26 1018.48 1018.68 1018.84 1018.96 1019.03 1019.05 1019.04 1019.01 1018.96 1018.92 1018.89 1018.87
1012.71 1012.98 1013.28 1013.59 1013.92 1014.26 1014.61 1014.95 1015.27 1015.56 1015.80 1015.99 1016.13 1016.22 1016.27 1016.29 1016.30 1016.30 1016.32 1016.35 1016.40 1016.47 1016.56 1016.68 1016.82 1016.99 1017.20 1017.43 1017.68 1017.96 1018.22 1018.47 1018.69 1018.86 1018.97 1019.03 1019.04 1019.02 1018.97 1018.92 1018.88 1018.86 1018.85
1012.29 1012.58 1012.89 1013.20 1013.53 1013.87 1014.21 1014.55 1014.87 1015.17 1015.44 1015.67 1015.85 1015.99 1016.09 1016.16 1016.21 1016.24 1016.28 1016.31 1016.35 1016.41 1016.49 1016.59 1016.73 1016.90 1017.11 1017.36 1017.64 1017.92 1018.21 1018.48 1018.70 1018.87 1018.98 1019.03 1019.03 1018.99 1018.94 1018.88 1018.83 1018.81 1018.81
1011.88 1012.20 1012.52 1012.85 1013.17 1013.49 1013.81 1014.13 1014.44 1014.75 1015.03 1015.29 1015.52 1015.72 1015.89 1016.02 1016.12 1016.20 1016.27 1016.32 1016.37 1016.42 1016.49 1016.59 1016.71 1016.88 1017.09 1017.33 1017.61 1017.90 1018.19 1018.46 1018.69 1018.86 1018.96 1019.01 1019.01 1018.96 1018.90 1018.84 1018.79 1018.76 1018.76
1011.51 1011.86 1012.20 1012.52 1012.83 1013.13 1013.41 1013.70 1014.00 1014.29 1014.59 1014.87 1015.15 1015.40 1015.63 1015.82 1015.99 1016.12 1016.22 1016.31 1016.38 1016.44 1016.51 1016.60 1016.72 1016.87 1017.07 1017.30 1017.56 1017.85 1018.13 1018.39 1018.61 1018.79 1018.90 1018.95 1018.96 1018.93 1018.88 1018.82 1018.78 1018.75 1018.74
1011.22 1011.59 1011.94 1012.25 1012.53 1012.79 1013.04 1013.29 1013.55 1013.83 1014.12 1014.42 1014.72 1015.02 1015.30 1015.55 1015.76 1015.95 1016.09 1016.21 1016.31 1016.39 1016.47 1016.56 1016.68 1016.82 1017.00 1017.22 1017.47 1017.73 1018.00 1018.25 1018.48 1018.65 1018.78 1018.86 1018.89 1018.89 1018.87 1018.84 1018.81 1018.80 1018.78
1011.04 1011.42 1011.74 1012.02 1012.26 1012.48 1012.68 1012.88 1013.11 1013.37 1013.65 1013.96 1014.28 1014.60 1014.90 1015.18 1015.43 1015.65 1015.83 1015.98 1016.10 1016.22 1016.32 1016.43 1016.56 1016.71 1016.88 1017.09 1017.32 1017.57 1017.82 1018.06 1018.28 1018.47 1018.62 1018.73 1018.81 1018.86 1018.89 1018.90 1018.91 1018.92 1018.91
1011.02 1011.36 1011.64 1011.86 1012.04 1012.20 1012.35 1012.52 1012.71 1012.94 1013.21 1013.51 1013.82 1014.14 1014.45 1014.74 1015.00 1015.23 1015.43 1015.61 1015.77 1015.92 1016.06 1016.21 1016.37 1016.54 1016.72 1016.93 1017.15 1017.38 1017.62 1017.85 1018.08 1018.28 1018.45 1018.60 1018.73 1018.84 1018.93 1019.01 1019.07 1019.11 1019.13
1011.17 1011.43 1011.63 1011.77 1011.88 1011.97 1012.07 1012.19 1012.35 1012.56 1012.80 1013.08 1013.38 1013.68 1013.96 1014.24 1014.49 1014.72 1014.93 1015.13 1015.33 1015.53 1015.73 1015.93 1016.14 1016.36 1016.57 1016.79 1017.02 1017.24 1017.47 1017.69 1017.90 1018.11 1018.31 1018.50 1018.68 1018.85 1019.01 1019.15 1019.27 1019.35 1019.39
1011.48 1011.62 1011.71 1011.76 1011.77 1011.79 1011.83 1011.90 1012.03 1012.21 1012.44 1012.69 1012.96 1013.22 1013.48 1013.72 1013.94 1014.16 1014.38 1014.60 1014.85 1015.11 1015.38 1015.66 1015.94 1016.22 1016.48 1016.73 1016.97 1017.19 1017.41 1017.61 1017.82 1018.03 1018.24 1018.45 1018.67 1018.88 1019.10 1019.30 1019.47 1019.60 1019.67
1011.92 1011.92 1011.88 1011.80 1011.72 1011.65 1011.63 1011.66 1011.76 1011.91 1012.11 1012.33 1012.56 1012.79 1013.00 1013.20 1013.40 1013.60 1013.83 1014.09 1014.38 1014.71 1015.07 1015.44 1015.81 1016.16 1016.49 1016.78 1017.04 1017.27 1017.47 1017.66 1017.85 1018.04 1018.24 1018.46 1018.69 1018.94 1019.19 1019.43 1019.64 1019.80 1019.89
1012.43 1012.29 1012.11 1011.91 1011.72 1011.57 1011.48 1011.46 1011.51 1011.63 1011.80 1012.00 1012.19 1012.38 1012.55 1012.72 1012.90 1013.10 1013.34 1013.64 1013.99 1014.40 1014.84 1015.31 1015.77 1016.20 1016.60 1016.94 1017.22 1017.46 1017.66 1017.83 1017.99 1018.15 1018.33 1018.53 1018.76 1019.00 1019.26 1019.52 1019.75 1019.93 1020.04
1012.98 1012.70 1012.38 1012.06 1011.77 1011.53 1011.37 1011.29 1011.30 1011.38 1011.51 1011.67 1011.83 1011.99 1012.13 1012.28 1012.45 1012.65 1012.92 1013.26 1013.68 1014.16 1014.69 1015.24 1015.79 1016.31 1016.76 1017.15 1017.47 1017.71 1017.90 1018.06 1018.19 1018.32 1018.47 1018.64 1018.84 1019.07 1019.32 1019.57 1019.80 1019.98 1020.08
1013.52 1013.12 1012.69 1012.26 1011.87 1011.54 1011.31 1011.16 1011.11 1011.14 1011.23 1011.35 1011.48 1011.60 1011.73 1011.87 1012.05 1012.27 1012.58 1012.96 1013.44 1013.98 1014.58 1015.21 1015.82 1016.40 1016.91 1017.33 1017.68 1017.94 1018.13 1018.28 1018.40 1018.51 1018.62 1018.76 1018.93 1019.12 1019.34 1019.57 1019.78 1019.94 1020.03
1014.03 1013.54 1013.03 1012.51 1012.03 1011.62 1011.30 1011.08 1010.96 1010.92 1010.95 1011.02 1011.12 1011.22 1011.34 1011.49 1011.68 1011.94 1012.28 1012.70 1013.22 1013.82 1014.47 1015.13 1015.79 1016.40 1016.94 1017.39 1017.76 1018.04 1018.25 1018.41 1018.53 1018.64 1018.74 1018.86 1019.00 1019.16 1019.35 1019.54 1019.72 1019.85 1019.92
1014.52 1013.97 1013.39 1012.81 1012.25 1011.76 1011.36 1011.05 1010.84 1010.73 1010.69 1010.71 1010.76 1010.84 1010.96 1011.12 1011.33 1011.62 1011.99 1012.46 1013.00 1013.62 1014.29 1014.96 1015.63 1016.24 1016.79 1017.26 1017.65 1017.96 1018.20 1018.39 1018.54 1018.67 1018.79 1018.91 1019.04 1019.18 1019.34 1019.50 1019.64 1019.75 1019.79
1014.99 1014.41 1013.79 1013.16 1012.54 1011.97 1011.48 1011.08 1010.78 1010.58 1010.45 1010.40 1010.41 1010.47 1010.58 1010.75 1010.99 1011.30 1011.71 1012.19 1012.75 1013.37 1014.02 1014.68 1015.32 1015.91 1016.45 1016.92 1017.33 1017.67 1017.95 1018.19 1018.40 1018.58 1018.74 1018.89 1019.03 1019.18 1019.32 1019.46 1019.58 1019.66 1019.68
1015.43 1014.84 1014.21 1013.54 1012.88 1012.24 1011.67 1011.17 1010.77 1010.46 1010.25 1010.13 1010.08 1010.11 1010.21 1010.39 1010.64 1010.98 1011.40 1011.90 1012.45 1013.05 1013.66 1014.28 1014.87 1015.43 1015.94 1016.40 1016.82 1017.20 1017.53 1017.84 1018.12 1018.37 1018.60 1018.80 1018.99 1019.15 1019.30 1019.43 1019.53 1019.60 1019.62
1015.83 1015.25 1014.61 1013.93 1013.22 1012.53 1011.88 1011.30 1010.80 1010.39 1010.09 1009.88 1009.78 1009.77 1009.85 1010.03 1010.30 1010.65 1011.08 1011.58 1012.12 1012.68 1013.26 1013.82 1014.36 1014.87 1015.35 1015.79 1016.22 1016.62 1017.01 1017.39 1017.75 1018.09 1018.40 1018.67 1018.91 1019.11 1019.28 1019.41 1019.51 1019.57 1019.59
1016.16 1015.59 1014.96 1014.27 1013.54 1012.81 1012.10 1011.44 1010.85 1010.35 1009.95 1009.67 1009.50 1009.45 1009.51 1009.68 1009.95 1010.31 1010.75 1011.24 1011.76 1012.30 1012.84 1013.36 1013.85 1014.31 1014.76 1015.19 1015.62 1016.05 1016.48 1016.92 1017.36 1017.77 1018.16 1018.50 1018.80 1019.04 1019.24 1019.39 1019.50 1019.57 1019.60
1016.36 1015.81 1015.19 1014.50 1013.77 1013.02 1012.26 1011.55 1010.88 1010.31 1009.83 1009.47 1009.24 1009.13 1009.16 1009.31 1009.58 1009.94 1010.38 1010.88 1011.40 1011.93 1012.44 1012.94 1013.40 1013.84 1014.26 1014.68 1015.11 1015.56 1016.03 1016.51 1017.00 1017.48 1017.92 1018.32 1018.67 1018.96 1019.18 1019.36 1019.49 1019.58 1019.63
1016.40 1015.87 1015.26 1014.59 1013.87 1013.11 1012.34 1011.59 1010.88 1010.24 1009.70 1009.27 1008.97 1008.81 1008.80 1008.92 1009.17 1009.53 1009.97 1010.48 1011.02 1011.56 1012.08 1012.58 1013.05 1013.49 1013.92 1014.34 1014.77 1015.23 1015.71 1016.21 1016.73 1017.24 1017.72 1018.16 1018.53 1018.85 1019.11 1019.31 1019.46 1019.57 1019.66
1016.25 1015.74 1015.16 1014.51 1013.81 1013.06 1012.30 1011.54 1010.81 1010.13 1009.54 1009.05 1008.69 1008.47 1008.40 1008.48 1008.70 1009.05 1009.50 1010.02 1010.59 1011.17 1011.74 1012.28 1012.79 1013.26 1013.71 1014.15 1014.59 1015.05 1015.53 1016.04 1016.55 1017.06 1017.54 1017.99 1018.39 1018.73 1019.01 1019.23 1019.41 1019.55 1019.67
Thickness
5685 5685 5685 5685 5686 5686 5686 5686 5685 5685 5685 5686 5686 5686 5686 5686 5686 5685 5684 5683 5682 5681 5680 5679 5678 5676 5675 5673 5671 5669 5666 5663 5660 5657 5655 5652 5650 5647 5644 5642 5639 5636 5633
5680 5679 5679 5679 5680 5680 5681 5681 5681 5681 5681 5681 5681 5682 5682 5682 5682 5681 5680 5679 5678 5677 5676 5675 5674 5672 5671 5669 5667 5664 5661 5658 5656 5653 5650 5648 5645 5643 5640 5637 5634 5631 5628
5675 5675 5674 5674 5675 5675 5675 5675 5675 5675 5675 5675 5676 5677 5677 5678 5677 5677 5676 5674 5674 5673 5672 5671 5669 5668 5666 5664 5662 5659 5657 5654 5651 5648 5646 5643 5641 5638 5636 5633 5630 5627 5623
5669 5669 5669 5670 5670 5670 5670 5670 5669 5669 5669 5670 5670 5671 5671 5672 5672 5671 5671 5669 5668 5667 5666 5665 5664 5662 5660 5658 5656 5654 5651 5649 5646 5643 5641 5638 5636 5633 5631 5628 5625 5622 5618
5663 5665 5665 5665 5664 5664 5664 5665 5664 5664 5663 5664 5664 5664 5665 5665 5665 5665 5665 5664 5663 5662 5660 5659 5657 5656 5654 5652 5650 5648 5646 5643 5641 5638 5635 5633 5631 5628 5626 5623 5620 5617 5613
5658 5659 5659 5659 5659 5658 5658 5658 5658 5658 5658 5657 5657 5657 5657 5657 5658 5659 5658 5657 5656 5655 5654 5652 5650 5648 5647 5645 5643 5641 5639 5637 5634 5632 5629 5627 5624 5622 5619 5617 5614 5611 5607
5653 5654 5654 5653 5653 5653 5653 5653 5652 5651 5650 5650 5648 5646 5647 5649 5649 5650 5650 5650 5649 5648 5647 5645 5643 5641 5639 5637 5635 5634 5632 5630 5628 5625 5623 5620 5617 5615 5613 5610 5607 5604 5600
5647 5648 5648 5648 5648 5647 5646 5646 5646 5644 5644 5644 5641 5636 5634 5636 5639 5642 5642 5642 5641 5640 5639 5637 5635 5633 5631 5629 5628 5626 5624 5623 5621 5619 5616 5613 5611 5608 5606 5603 5600 5597 5593
5641 5642 5643 5642 5642 5642 5641 5641 5641 5640 5638 5637 5638 5634 5629 5628 5630 5631 5632 5632 5632 5631 5630 5629 5628 5626 5623 5621 5620 5618 5616 5615 5613 5611 5609 5606 5604 5601 5598 5595 5592 5589 5586
5635 5636 5636 5636 5636 5636 5635 5635 5635 5635 5633 5630 5629 5631 5630 5629 5624 5621 5621 5622 5622 5622 5621 5620 5619 5618 5615 5613 5611 5610 5608 5607 5605 5603 5601 5599 5596 5593 5590 5588 5584 5582 5579
5628 5629 5629 5630 5629 5629 5629 5629 5628 5628 5628 5627 5625 5623 5622 5621 5621 5617 5614 5613 5612 5613 5613 5612 5610 5609 5607 5605 5603 5601 5600 5598 5596 5594 5592 5590 5588 5585 5582 5579 5577 5574 5571
5621 5622 5622 5622 5623 5623 5623 5623 5622 5622 5622 5622 5621 5620 5619 5617 5615 5613 5610 5607 5605 5604 5604 5603 5601 5600 5598 5596 5595 5592 5591 5589 5587 5585 5584 5581 5578 5575 5573 5571 5569 5566 5563
5614 5615 5615 5615 5616 5616 5616 5616 5615 5616 5616 5616 5616 5615 5615 5615 5613 5610 5607 5602 5598 5596 5594 5593 5592 5590 5589 5587 5585 5583 5582 5579 5577 5576 5574 5571 5568 5565 5563 5561 5559 5557 5555
5607 5608 5609 5609 5609 5609 5609 5609 5608 5609 5609 5608 5608 5608 5607 5607 5606 5605 5602 5597 5591 5587 5585 5584 5581 5580 5579 5577 5576 5574 5572 5569 5567 5565 5563 5561 5558 5556 5553 5551 5550 5548 5546
5598 5599 5600 5601 5601 5600 5600 5600 5600 5600 5600 5599 5599 5599 5598 5598 5597 5596 5595 5592 5588 5582 5579 5575 5572 5570 5568 5567 5566 5564 5561 5559 5557 5555 5553 5550 5548 5546 5544 5542 5540 5539 5538
5588 5589 5590 5591 5591 5591 5592 5592 5591 5591 5590 5591 5590 5589 5589 5588 5587 5586 5585 5582 5580 5577 5572 5566 5562 5561 5558 5556 5554 5553 5550 5548 5546 5544 5542 5540 5538 5537 5534 5533 5531 5530 5529
5577 5578 5579 5580 5581 5581 5581 5582 5582 5582 5582 5581 5580 5580 5579 5578 5576 5575 5573 5572 5570 5566 5562 5554 5551 5549 5547 5545 5543 5541 5539 5537 5536 5534 5532 5530 5528 5526 5525 5523 5522 5521 5521
5566 5567 5569 5570 5570 5571 5572 5572 5572 5573 5573 5572 5570 5569 5569 5567 5565 5564 5562 5560 5558 5556 5553 5546 5540 5538 5536 5535 5533 5530 5528 5526 5525 5523 5522 5520 5518 5516 5514 5513 5512 5511 5511
5553 5555 5556 5558 5558 5559 5560 5561 5561 5561 5562 5561 5560 5560 5558 5557 5555 5552 5550 5548 5546 5544 5542 5538 5532 5528 5525 5524 5521 5519 5517 5515 5514 5513 5511 5510 5508 5506 5504 5503 5502 5501 5502
5540 5541 5543 5544 5545 5546 5547 5547 5548 5549 5549 5549 5549 5549 5548 5547 5545 5542 5540 5537 5535 5532 5530 5527 5523 5519 5515 5513 5510 5508 5505 5504 5503 5502 5500 5499 5497 5496 5494 5493 5492 5492 5492
5526 5527 5528 5530 5531 5531 5532 5533 5533 5534 5534 5535 5535 5535 5535 5535 5534 5531 5529 5527 5524 5521 5518 5516 5514 5509 5506 5503 5502 5500 5497 5494 5492 5491 5489 5488 5486 5485 5484 5483 5482 5482 5482
5511 5512 5513 5514 5515 5516 5517 5518 5518 5518 5519 5520 5520 5520 5520 5520 5519 5519 5518 5516 5515 5512 5509 5507 5505 5503 5500 5497 5494 5491 5487 5484 5482 5481 5479 5477 5476 5475 5474 5473 5472 5472 5472
5494 5495 5496 5497 5498 5499 5500 5501 5502 5502 5503 5503 5504 5504 5505 5505 5505 5504 5504 5504 5503 5503 5502 5499 5497 5495 5491 5489 5486 5482 5479 5477 5476 5474 5470 5467 5465 5464 5463 5463 5462 5462 5462
5476 5476 5477 5478 5478 5480 5481 5482 5483 5484 5486 5486 5487 5488 5489 5489 5489 5489 5488 5488 5488 5489 5489 5488 5487 5485 5483 5480 5479 5477 5473 5467 5463 5461 5461 5458 5454 5454 5454 5453 5453 5453 5453
5455 5455 5456 5457 5457 5459 5460 5462 5464 5465 5466 5468 5469 5471 5472 5473 5474 5474 5473 5472 5472 5473 5474 5474 5474 5473 5472 5470 5468 5464 5460 5456 5453 5450 5449 5448 5445 5443 5443 5443 5443 5444 5444
5433 5433 5434 5434 5435 5437 5439 5441 5442 5444 5446 5449 5451 5453 5454 5456 5458 5458 5458 5458 5459 5459 5458 5459 5459 5459 5459 5459 5458 5456 5453 5449 5445 5442 5441 5439 5435 5434 5432 5433 5433 5434 5435